FW7044 Weather Reports


Display with metric or nautical units.
time (UTC)temp
F
wind
direction
speed
MPH
gust
MPH
rain 1hr
in
rain 24hr
in
rain mn
in
humidity
%
barometer
mb
20260510191542 99 341 0.0 1.0 0.00 0.00 0.00 51 1015.1
20260510191039 100 38 2.0 3.0 0.00 0.00 0.00 51 1015.5
20260510190536 99 265 0.0 0.0 0.00 0.00 0.00 51 1015.6
20260510190034 97 146 4.0 5.0 0.00 0.00 0.00 52 1015.6
20260510185530 98 187 7.0 9.0 0.00 0.00 0.00 51 1015.6
20260510185028 99 244 2.0 3.0 0.00 0.00 0.00 49 1015.7
20260510184525 98 262 4.0 5.0 0.00 0.00 0.00 51 1016.1
20260510184020 98 234 4.0 6.0 0.00 0.00 0.00 50 1016.0
20260510183516 98 202 7.0 9.0 0.00 0.00 0.00 51 1016.3
20260510183011 99 307 4.0 7.0 0.00 0.00 0.00 52 1016.2
20260510182508 99 180 1.0 2.0 0.00 0.00 0.00 53 1016.1
20260510182003 99 209 3.0 3.0 0.00 0.00 0.00 52 1016.2
20260510181502 98 188 4.0 5.0 0.00 0.00 0.00 54 1016.4
20260510180957 98 297 1.0 2.0 0.00 0.00 0.00 54 1016.3
20260510180454 98 163 4.0 5.0 0.00 0.00 0.00 52 1016.3
20260510175951 97 218 0.0 1.0 0.00 0.00 0.00 53 1016.5
20260510175447 97 342 5.0 7.0 0.00 0.00 0.00 54 1016.6
20260510174943 96 260 5.0 6.0 0.00 0.00 0.00 56 1016.5
20260510174441 98 315 2.0 3.0 0.00 0.00 0.00 56 1016.6
20260510173938 98 231 1.0 1.0 0.00 0.00 0.00 55 1016.6
20260510173433 96 315 2.0 2.0 0.00 0.00 0.00 60 1016.8
20260510172930 96 182 3.0 3.0 0.00 0.00 0.00 59 1016.6
20260510172426 96 117 5.0 7.0 0.00 0.00 0.00 61 1016.8
20260510171922 97 239 3.0 6.0 0.00 0.00 0.00 59 1017.0
20260510171419 96 347 3.0 3.0 0.00 0.00 0.00 62 1017.0
20260510170916 96 218 3.0 5.0 0.00 0.00 0.00 59 1017.1
20260510170413 96 262 5.0 6.0 0.00 0.00 0.00 62 1017.2
20260510165908 96 309 3.0 5.0 0.00 0.00 0.00 60 1017.0
20260510165404 96 260 2.0 2.0 0.00 0.00 0.00 61 1017.0
20260510164902 96 239 3.0 3.0 0.00 0.00 0.00 62 1017.0
20260510164359 96 248 1.0 2.0 0.00 0.00 0.00 63 1017.2
20260510163858 95 244 1.0 2.0 0.00 0.00 0.00 62 1017.3
20260510163356 94 337 0.0 1.0 0.00 0.00 0.00 66 1017.1
20260510162855 94 306 1.0 2.0 0.00 0.00 0.00 66 1017.4
20260510162353 94 219 2.0 3.0 0.00 0.00 0.00 66 1017.7
20260510161848 93 239 2.0 2.0 0.00 0.00 0.00 68 1017.7
20260510161344 93 315 1.0 1.0 0.00 0.00 0.00 69 1017.5
20260510160842 94 304 3.0 5.0 0.00 0.00 0.00 65 1017.6
20260510160339 94 328 1.0 2.0 0.00 0.00 0.00 66 1017.5
20260510155832 93 243 3.0 3.0 0.00 0.00 0.00 70 1017.6
20260510155330 93 271 2.0 3.0 0.00 0.00 0.00 70 1017.3
20260510154825 93 176 6.0 7.0 0.00 0.00 0.00 67 1017.6
20260510154316 92 184 5.0 6.0 0.00 0.00 0.00 70 1017.5
20260510153815 92 308 1.0 2.0 0.00 0.00 0.00 70 1017.8
20260510153312 90 274 4.0 6.0 0.00 0.00 0.00 71 1017.9
20260510152809 92 331 1.0 2.0 0.00 0.00 0.00 72 1017.8
20260510152307 91 234 0.0 1.0 0.00 0.00 0.00 72 1017.6
20260510151802 91 287 3.0 5.0 0.00 0.00 0.00 73 1017.8
20260510151300 92 284 1.0 1.0 0.00 0.00 0.00 72 1017.5
20260510150755 91 317 1.0 2.0 0.00 0.00 0.00 73 1017.6
20260510150252 90 298 1.0 2.0 0.00 0.00 0.00 73 1017.7
20260510145748 90 220 4.0 6.0 0.00 0.00 0.00 73 1017.6
20260510145245 89 278 3.0 3.0 0.00 0.00 0.00 75 1017.8
20260510144741 90 330 1.0 1.0 0.00 0.00 0.00 74 1017.5
20260510144238 89 226 3.0 3.0 0.00 0.00 0.00 75 1017.4
20260510143732 89 300 1.0 2.0 0.00 0.00 0.00 77 1017.4
20260510143229 89 197 4.0 5.0 0.00 0.00 0.00 74 1017.5
20260510142725 88 257 2.0 2.0 0.00 0.00 0.00 75 1017.4
20260510142222 87 297 0.0 0.0 0.00 0.00 0.00 79 1017.5
20260510141719 87 312 2.0 3.0 0.00 0.00 0.00 80 1017.3
20260510141217 87 316 1.0 2.0 0.00 0.00 0.00 81 1017.2
20260510140713 86 237 2.0 3.0 0.00 0.00 0.00 84 1017.2
20260510140214 86 224 3.0 5.0 0.00 0.00 0.00 82 1017.1
20260510135708 86 208 3.0 5.0 0.00 0.00 0.00 84 1017.2
20260510135204 85 306 0.0 0.0 0.00 0.00 0.00 86 1017.5
20260510134702 83 266 1.0 1.0 0.00 0.00 0.00 89 1017.2
20260510134159 82 298 0.0 1.0 0.00 0.00 0.00 97 1017.4
20260510133655 81 311 0.0 0.0 0.00 0.00 0.00 99 1017.1
20260510133150 80 299 0.0 0.0 0.00 0.00 0.00 99 1017.2
20260510132647 80 252 0.0 0.0 0.00 0.00 0.00 99 1017.5
20260510132144 79 329 0.0 0.0 0.00 0.00 0.00 99 1017.6
20260510131642 80 309 0.0 0.0 0.00 0.00 0.00 99 1017.2
20260510131139 79 304 0.0 0.0 0.00 0.00 0.00 99 1017.3
20260510130636 79 227 2.0 2.0 0.00 0.00 0.00 99 1017.3
20260510130133 79 302 0.0 0.0 0.00 0.00 0.00 99 1017.1
20260510125629 79 325 0.0 0.0 0.00 0.00 0.00 99 1017.1
20260510125125 80 323 0.0 0.0 0.00 0.00 0.00 99 1017.0
20260510124623 79 311 0.0 0.0 0.00 0.00 0.00 99 1017.1
20260510124119 79 302 0.0 0.0 0.00 0.00 0.00 99 1017.1
20260510123614 78 307 0.0 0.0 0.00 0.00 0.00 99 1016.9
20260510123111 78 294 0.0 1.0 0.00 0.00 0.00 99 1016.9
20260510122607 78 160 2.0 3.0 0.00 0.00 0.00 99 1016.4
20260510122103 78 281 0.0 1.0 0.00 0.00 0.00 99 1016.4
20260510121600 78 151 3.0 3.0 0.00 0.00 0.00 99 1016.6
20260510121057 78 259 1.0 1.0 0.00 0.00 0.00 99 1016.4
20260510120555 78 189 2.0 2.0 0.00 0.00 0.00 99 1016.1
20260510120050 77 286 0.0 1.0 0.00 0.00 0.00 99 1016.3
20260510115547 77 211 1.0 1.0 0.00 0.00 0.00 99 1015.9
20260510115044 77 191 1.0 1.0 0.00 0.00 0.00 99 1016.0
20260510114540 77 120 1.0 2.0 0.00 0.00 0.00 99 1015.8
20260510114036 77 230 1.0 1.0 0.00 0.00 0.00 99 1015.8
20260510113531 77 292 0.0 0.0 0.00 0.00 0.00 99 1016.0
20260510113029 76 267 1.0 1.0 0.00 0.00 0.00 99 1015.7
20260510112526 76 285 0.0 0.0 0.00 0.00 0.00 99 1015.7
20260510112022 76 284 0.0 0.0 0.00 0.00 0.00 99 1015.7
20260510111519 76 341 0.0 0.0 0.00 0.00 0.00 99 1015.6
20260510111015 76 327 0.0 0.0 0.00 0.00 0.00 99 1015.8
20260510110511 76 275 0.0 1.0 0.00 0.00 0.00 99 1015.7
20260510110008 76 275 0.0 0.0 0.00 0.00 0.00 99 1015.8
20260510105502 76 275 0.0 0.0 0.00 0.00 0.00 99 1015.7
20260510104958 76 275 0.0 0.0 0.00 0.00 0.00 99 1015.6
20260510104455 76 276 0.0 0.0 0.00 0.00 0.00 99 1015.4
20260510103951 76 276 0.0 0.0 0.00 0.00 0.00 99 1015.5
20260510103449 76 276 0.0 0.0 0.00 0.00 0.00 99 1015.4
20260510102944 76 276 0.0 0.0 0.00 0.00 0.00 99 1015.1
20260510102440 76 273 1.0 1.0 0.00 0.00 0.00 99 1015.2
20260510101937 76 277 0.0 0.0 0.00 0.00 0.00 99 1015.1
20260510101435 76 246 1.0 1.0 0.00 0.00 0.00 99 1015.1
20260510100933 76 285 0.0 0.0 0.00 0.00 0.00 99 1014.9
20260510100429 76 287 0.0 0.0 0.00 0.00 0.00 99 1015.1
20260510095925 76 294 0.0 0.0 0.00 0.00 0.00 99 1014.9
20260510095421 76 260 1.0 1.0 0.00 0.00 0.00 99 1015.1
20260510094920 76 301 0.0 0.0 0.00 0.00 0.00 99 1014.9
20260510094414 76 300 0.0 0.0 0.00 0.00 0.00 99 1014.9
20260510093911 76 301 0.0 0.0 0.00 0.00 0.00 99 1014.9
20260510093407 76 308 0.0 1.0 0.00 0.00 0.00 99 1014.8
20260510092903 76 301 0.0 1.0 0.00 0.00 0.00 99 1015.0
20260510092401 76 228 1.0 1.0 0.00 0.00 0.00 99 1014.8
20260510091855 76 270 1.0 1.0 0.00 0.00 0.00 99 1014.6
20260510091353 75 313 0.0 0.0 0.00 0.00 0.00 99 1014.7
20260510090849 75 298 0.0 1.0 0.00 0.00 0.00 99 1014.6
20260510090345 75 222 1.0 2.0 0.00 0.00 0.00 99 1014.7
20260510085841 75 244 1.0 2.0 0.00 0.00 0.00 99 1014.6
20260510085336 75 269 0.0 0.0 0.00 0.00 0.00 99 1014.6
20260510084832 75 269 0.0 0.0 0.00 0.00 0.00 99 1014.5
20260510084329 75 269 0.0 0.0 0.00 0.00 0.00 99 1014.3
20260510083826 75 269 0.0 0.0 0.00 0.00 0.00 99 1014.5
20260510083323 75 269 0.0 0.0 0.00 0.00 0.00 99 1014.4
20260510082818 75 269 0.0 0.0 0.00 0.00 0.00 99 1014.5
20260510082316 75 269 0.0 0.0 0.00 0.00 0.00 99 1014.3
20260510081814 75 269 0.0 0.0 0.00 0.00 0.00 99 1014.4
20260510081310 75 269 0.0 0.0 0.00 0.00 0.00 99 1014.4
20260510080806 75 269 0.0 0.0 0.00 0.00 0.00 99 1014.6
20260510080301 75 269 0.0 0.0 0.00 0.00 0.00 99 1014.4
20260510075759 75 269 0.0 0.0 0.00 0.00 0.00 99 1014.6
20260510075256 75 269 0.0 0.0 0.00 0.00 0.00 99 1014.5
20260510074753 75 269 0.0 0.0 0.00 0.00 0.00 99 1014.2
20260510074249 75 269 0.0 0.0 0.00 0.00 0.00 99 1014.4
20260510073745 75 269 0.0 0.0 0.00 0.00 0.00 99 1014.4
20260510073242 75 269 0.0 0.0 0.00 0.00 0.00 99 1014.7
20260510072737 75 269 0.0 0.0 0.00 0.00 0.00 99 1014.5
20260510072234 75 269 0.0 0.0 0.00 0.00 0.00 99 1014.6
20260510071731 75 269 0.0 0.0 0.00 0.00 0.00 99 1014.7
20260510071227 75 269 0.0 0.0 0.00 0.00 0.00 99 1014.7
20260510070726 75 269 0.0 0.0 0.00 0.00 0.00 99 1014.8
20260510070223 76 269 0.0 0.0 0.00 0.00 0.00 99 1014.7
20260510065718 76 269 0.0 0.0 0.00 0.00 0.00 99 1014.9
20260510065214 75 269 0.0 0.0 0.00 0.00 0.00 99 1014.8
20260510064711 76 269 0.0 0.0 0.00 0.00 0.00 99 1014.8
20260510064209 76 269 0.0 0.0 0.00 0.00 0.00 99 1014.9
20260510063705 76 269 0.0 0.0 0.00 0.00 0.00 99 1014.9
20260510063201 76 269 0.0 0.0 0.00 0.00 0.00 99 1015.0
20260510062657 76 269 0.0 0.0 0.00 0.00 0.00 99 1014.7
20260510062153 76 269 0.0 0.0 0.00 0.00 0.00 99 1014.8
20260510061648 76 269 0.0 0.0 0.00 0.00 0.00 99 1015.0
20260510061147 76 269 0.0 0.0 0.00 0.00 0.00 99 1015.0
20260510060643 76 269 0.0 0.0 0.00 0.00 0.00 99 1015.0
20260510060139 76 269 0.0 0.0 0.00 0.00 0.00 99 1014.7
20260510055636 76 269 0.0 0.0 0.00 0.00 0.00 99 1015.0
20260510055134 76 269 0.0 0.0 0.00 0.00 0.00 99 1015.2
20260510054630 76 269 0.0 0.0 0.00 0.00 0.00 99 1015.3
20260510054125 76 269 0.0 0.0 0.00 0.00 0.00 99 1015.4
20260510053624 76 269 0.0 0.0 0.00 0.00 0.00 99 1015.3
20260510053121 76 269 0.0 0.0 0.00 0.00 0.00 99 1015.3
20260510052617 76 269 0.0 0.0 0.00 0.00 0.00 99 1015.5
20260510052114 76 269 0.0 0.0 0.00 0.00 0.00 99 1015.3
20260510051609 76 269 0.0 0.0 0.00 0.00 0.00 99 1015.4
20260510051106 76 269 0.0 0.0 0.00 0.00 0.00 99 1015.3
20260510050604 76 269 0.0 0.0 0.00 0.00 0.00 99 1015.5
20260510050101 76 269 0.0 0.0 0.00 0.00 0.00 99 1015.4
20260510045558 76 269 0.0 0.0 0.00 0.00 0.00 99 1015.2
20260510045054 76 269 0.0 0.0 0.00 0.00 0.00 99 1015.5
20260510044550 76 269 0.0 0.0 0.00 0.00 0.00 99 1015.4
20260510044048 76 269 0.0 0.0 0.00 0.00 0.00 99 1015.7
20260510043543 76 269 0.0 0.0 0.00 0.00 0.00 99 1015.4
20260510043039 76 269 0.0 0.0 0.00 0.00 0.00 99 1015.6
20260510042538 76 269 0.0 0.0 0.00 0.00 0.00 99 1015.6
20260510042034 77 268 0.0 0.0 0.00 0.00 0.00 99 1015.7
20260510041531 77 272 0.0 0.0 0.00 0.00 0.00 99 1015.5
20260510041028 77 272 0.0 0.0 0.00 0.00 0.00 99 1015.6
20260510040519 77 272 0.0 0.0 0.00 0.00 0.00 99 1015.6
20260510040015 77 272 0.0 0.0 0.00 0.18 0.18 99 1015.7
20260510035512 77 272 0.0 0.0 0.00 0.18 0.18 99 1015.5
20260510035011 77 272 0.0 0.0 0.00 0.18 0.18 99 1015.6
20260510034511 77 271 0.0 0.0 0.00 0.18 0.18 99 1015.6
20260510034006 76 271 0.0 0.0 0.00 0.18 0.18 99 1015.4
20260510033502 77 271 0.0 0.0 0.00 0.18 0.18 99 1015.6
20260510033000 77 272 0.0 0.0 0.00 0.18 0.18 99 1015.5
20260510032457 77 272 0.0 0.0 0.00 0.18 0.18 99 1015.5
20260510031957 77 272 0.0 0.0 0.00 0.18 0.18 99 1015.3
20260510031452 77 272 0.0 0.0 0.00 0.18 0.18 99 1015.2
20260510030949 77 272 0.0 0.0 0.00 0.18 0.18 99 1015.3
20260510030444 77 272 0.0 0.0 0.00 0.18 0.18 99 1015.3
20260510025942 77 271 0.0 0.0 0.00 0.18 0.18 99 1015.1
20260510025439 77 242 1.0 1.0 0.00 0.18 0.18 99 1015.4
20260510024937 77 285 1.0 1.0 0.00 0.18 0.18 99 1015.3
20260510024433 77 303 0.0 0.0 0.00 0.18 0.18 99 1015.0
20260510023928 77 305 0.0 0.0 0.00 0.18 0.18 99 1014.7
20260510023425 77 305 0.0 0.0 0.00 0.18 0.18 99 1014.8
20260510022922 77 358 0.0 2.0 0.00 0.18 0.18 99 1014.7
20260510022421 77 308 0.0 1.0 0.00 0.18 0.18 99 1014.5
20260510021920 77 331 2.0 2.0 0.07 0.18 0.18 99 1014.6
20260510021419 77 344 1.0 1.0 0.07 0.18 0.18 99 1014.5
20260510020915 77 5 0.0 1.0 0.07 0.18 0.18 99 1014.4
20260510020410 77 16 2.0 2.0 0.00 0.17 0.17 99 1014.4
20260510015906 77 313 0.0 0.0 0.00 0.17 0.17 99 1014.7
20260510015402 77 263 1.0 1.0 0.00 0.17 0.17 99 1014.6
20260510014857 77 311 0.0 1.0 0.00 0.17 0.17 99 1014.6
20260510014355 77 321 1.0 2.0 0.00 0.17 0.17 99 1014.6
20260510013851 78 313 0.0 0.0 0.00 0.17 0.17 99 1014.5
20260510013346 78 11 1.0 2.0 0.00 0.17 0.17 99 1014.5
20260510012841 78 316 0.0 0.0 0.07 0.17 0.17 99 1014.4
20260510012341 78 328 1.0 2.0 0.12 0.17 0.17 98 1014.4
20260510011836 78 323 0.0 0.0 0.24 0.16 0.16 98 1014.3
20260510011332 79 340 1.0 1.0 0.31 0.15 0.15 97 1014.3
20260510010829 79 322 0.0 0.0 0.35 0.12 0.12 96 1014.6
20260510010326 80 328 1.0 1.0 0.54 0.11 0.11 96 1014.9
20260510005822 80 307 0.0 0.0 0.31 0.07 0.07 93 1014.5
20260510005319 80 229 0.0 1.0 0.07 0.02 0.02 91 1014.3
20260510004817 82 348 0.0 0.0 0.12 0.02 0.02 86 1014.1
20260510004314 85 247 2.0 3.0 0.05 0.01 0.01 78 1013.9
20260510003812 86 65 3.0 3.0 0.00 0.00 0.00 72 1014.0
20260510003308 86 290 1.0 1.0 0.00 0.00 0.00 70 1013.3
20260510002807 87 311 1.0 1.0 0.00 0.00 0.00 70 1013.0
20260510002307 87 336 4.0 6.0 0.00 0.00 0.00 69 1012.9
20260510001801 87 42 3.0 3.0 0.00 0.00 0.00 68 1012.8
20260510001259 88 2 2.0 3.0 0.00 0.00 0.00 67 1013.0
20260510000754 88 317 1.0 1.0 0.00 0.00 0.00 67 1012.7
20260510000253 88 17 2.0 5.0 0.00 0.00 0.00 68 1012.8
20260509235749 88 307 2.0 2.0 0.00 0.00 0.00 75 1013.0
20260509235246 89 128 2.0 2.0 0.00 0.00 0.00 75 1012.2
20260509234741 89 180 0.0 1.0 0.00 0.00 0.00 74 1012.1
20260509234238 89 121 3.0 3.0 0.00 0.00 0.00 74 1012.0
20260509233737 89 116 2.0 2.0 0.00 0.00 0.00 73 1012.0
20260509233234 90 145 4.0 5.0 0.00 0.00 0.00 72 1011.8
20260509232730 90 113 3.0 5.0 0.00 0.00 0.00 71 1011.8
20260509232227 91 106 3.0 5.0 0.00 0.00 0.00 71 1011.5
20260509231723 91 49 1.0 1.0 0.00 0.00 0.00 70 1011.6
20260509231221 92 232 2.0 2.0 0.00 0.00 0.00 69 1011.5
20260509230718 93 180 1.0 1.0 0.00 0.00 0.00 65 1011.6
20260509230215 94 119 3.0 5.0 0.00 0.00 0.00 61 1011.6
20260509225710 95 193 1.0 2.0 0.00 0.00 0.00 48 1011.6
20260509225206 96 233 1.0 1.0 0.00 0.00 0.00 47 1011.5
20260509224702 96 131 3.0 5.0 0.00 0.00 0.00 46 1011.4
20260509224159 96 274 0.0 0.0 0.00 0.00 0.00 46 1011.3
20260509223656 96 207 3.0 6.0 0.00 0.00 0.00 46 1011.5
20260509223148 97 264 3.0 5.0 0.00 0.00 0.00 45 1011.7
20260509222645 96 196 4.0 6.0 0.00 0.00 0.00 45 1011.4
20260509222139 96 285 4.0 6.0 0.00 0.00 0.00 45 1011.4
20260509221636 98 90 2.0 5.0 0.00 0.00 0.00 43 1011.4
20260509221132 98 259 1.0 2.0 0.00 0.00 0.00 42 1011.4
20260509220628 98 309 1.0 1.0 0.00 0.00 0.00 42 1011.2
20260509220124 98 194 4.0 5.0 0.00 0.00 0.00 41 1011.5
20260509215620 98 218 8.0 9.0 0.00 0.00 0.00 42 1011.8
20260509215112 98 231 2.0 2.0 0.00 0.00 0.00 41 1011.7
20260509214609 99 184 7.0 8.0 0.00 0.00 0.00 41 1011.5
20260509214105 99 220 2.0 3.0 0.00 0.00 0.00 40 1011.6
20260509213601 99 197 4.0 6.0 0.00 0.00 0.00 39 1011.6
20260509213058 100 173 6.0 8.0 0.00 0.00 0.00 40 1011.6
20260509212555 98 216 5.0 6.0 0.00 0.00 0.00 41 1011.6
20260509212052 100 223 7.0 10.0 0.00 0.00 0.00 41 1011.4
20260509211548 99 263 1.0 1.0 0.00 0.00 0.00 41 1011.6
20260509211044 99 217 3.0 5.0 0.00 0.00 0.00 40 1011.8
20260509210541 99 216 3.0 5.0 0.00 0.00 0.00 41 1011.6
20260509210037 100 196 4.0 7.0 0.00 0.00 0.00 39 1011.8
20260509205532 98 252 3.0 3.0 0.00 0.00 0.00 42 1011.6
20260509205028 98 191 4.0 5.0 0.00 0.00 0.00 42 1011.7
20260509204524 98 131 3.0 6.0 0.00 0.00 0.00 42 1011.6
20260509204021 99 173 4.0 6.0 0.00 0.00 0.00 42 1011.7
20260509203516 98 233 4.0 6.0 0.00 0.00 0.00 41 1011.7
20260509203015 98 298 0.0 1.0 0.00 0.00 0.00 42 1012.0
20260509202509 99 208 3.0 3.0 0.00 0.00 0.00 41 1012.1
20260509202005 98 93 1.0 2.0 0.00 0.00 0.00 41 1012.0
20260509201500 97 216 6.0 8.0 0.00 0.00 0.00 40 1011.9
20260509200957 98 195 5.0 6.0 0.00 0.00 0.00 40 1012.1
20260509200452 98 282 3.0 6.0 0.00 0.00 0.00 39 1012.1
20260509195949 98 352 3.0 5.0 0.00 0.00 0.00 39 1012.2
20260509195444 98 189 8.0 10.0 0.00 0.00 0.00 39 1012.1
20260509194944 99 310 3.0 5.0 0.00 0.00 0.00 38 1012.3
20260509194440 99 173 7.0 10.0 0.00 0.00 0.00 37 1012.5
20260509193937 98 206 3.0 3.0 0.00 0.00 0.00 39 1012.5
20260509193436 99 182 4.0 5.0 0.00 0.00 0.00 37 1012.5
20260509192933 98 223 5.0 7.0 0.00 0.00 0.00 38 1012.6
20260509192430 98 289 1.0 2.0 0.00 0.00 0.00 39 1012.7